Location: Forestville
(38.4740°N, 122.8890°W)
Time: 11:28:39
(UTC-08:00)

Amateur Radio Satellites - All Passes

Search period start: 22 December 2014 10:58
Search period end: 23 December 2014 10:58
Location: Forestville, 38.4740°N, 122.8890°W

Satellite Date Start Highest point End Downlink Frequencies (MHz)
Time Altitude Azimuth
DUCHIFAT 1 22 Dec 10:59:02 11:02:52 34° 262° (W) 11:06:43 145.980
Oscar 11 22 Dec 11:07:18 11:10:06 17° 294° (WNW) 11:12:54 145.826/435.025
QB50P2 22 Dec 11:14:40 11:18:02 23° 265° (W) 11:21:24 145.880/145.840
UKube-1 22 Dec 11:16:55 11:19:55 19° 294° (WNW) 11:22:55 .
POLYITAN 1 22 Dec 11:24:48 11:27:41 18° 266° (W) 11:30:35 437.675
NANOSAT C BR1 22 Dec 11:25:11 11:28:05 18° 266° (W) 11:30:59 145.865
UNISAT 6 22 Dec 11:26:09 11:28:05 13° 269° (W) 11:30:03 437.425
JUGNU 22 Dec 11:29:58 11:31:10 11° 172° (S) 11:32:23 437.505
QB50P1 22 Dec 11:41:20 11:43:00 12° 268° (W) 11:44:41 145.935-145.965
CUBEBUG 2 22 Dec 11:41:43 11:43:54 13° 296° (WNW) 11:46:05 437.445
ZACube-1 22 Dec 11:42:57 11:45:45 16° 294° (WNW) 11:48:34 437.345
TISAT 1 22 Dec 11:47:21 11:51:02 28° 97° (E) 11:54:41 437.305
50 SAT 22 Dec 11:49:15 11:52:36 24° 291° (WNW) 11:55:56 437.505
VELOX 1 22 Dec 11:51:07 11:54:37 23° 292° (WNW) 11:58:06 145.980
SPROUT 22 Dec 11:57:08 12:01:05 35° 98° (E) 12:05:01 437.525
ESTCUBE 1 22 Dec 12:00:25 12:04:42 44° 288° (WNW) 12:08:57 437.505/2401.250
YUBILEINY 22 Dec 12:04:31 12:12:30 43° 273° (W) 12:20:30 435.215
ISS 22 Dec 12:17:17 12:20:21 35° 135° (SE) 12:23:24 145.825
BEESAT 3 22 Dec 12:23:23 12:27:16 44° 116° (ESE) 12:31:13 437.485
CUBEBUG 1 22 Dec 12:34:09 12:37:20 20° 293° (WNW) 12:40:31 437.445
AIST 2 22 Dec 12:42:27 12:46:05 29° 113° (ESE) 12:49:47 435.215
Oscar 19 22 Dec 12:47:07 12:52:13 72° 74° (ENE) 12:57:23 437.125/150
PCSat 22 Dec 12:50:43 12:55:48 44° 111° (ESE) 13:00:56 145.827
RS-15 22 Dec 12:57:28 13:07:56 50° 311° (NW) 13:18:32 29.354- 29.394
BEESAT 2 22 Dec 13:04:58 13:09:03 70° 302° (WNW) 13:13:14 435.950
ITAMSAT 1 22 Dec 13:07:50 13:12:41 42° 70° (ENE) 13:17:31 435.822/435.867
Gurwin Techsat 1B 22 Dec 13:15:28 13:20:02 30° 68° (ENE) 13:24:38 435.225
JUGNU 22 Dec 13:17:08 13:19:17 12° 183° (S) 13:21:27 437.505
HORYU 2 22 Dec 13:20:09 13:20:32 10° 61° (ENE) 13:20:54 437.375
TISAT 1 22 Dec 13:23:25 13:26:41 22° 292° (WNW) 13:29:58 437.305
SWISSCUBE 22 Dec 13:29:45 13:34:28 59° 101° (E) 13:39:08 437.505
ITUPSAT 1 22 Dec 13:31:07 13:35:48 55° 101° (E) 13:40:27 437.325
SPROUT 22 Dec 13:33:53 13:36:55 19° 293° (WNW) 13:39:57 437.525
AUBIESAT-1 22 Dec 13:38:32 13:41:14 17° 96° (E) 13:43:48 437.475
ISS 22 Dec 13:54:08 13:56:58 26° 331° (NNW) 13:59:48 145.825
BEESAT 22 Dec 13:54:17 13:59:04 82° 284° (WNW) 14:03:48 436.000
BEESAT 3 22 Dec 14:02:47 14:05:39 18° 313° (NW) 14:08:33 437.485
M-CUBED/EXP-1 PRIME 22 Dec 14:04:49 14:08:49 39° 102° (ESE) 14:12:27 437.505
STARS 22 Dec 14:15:55 14:19:21 22° 95° (E) 14:22:46 437.465
AIST 2 22 Dec 14:21:03 14:24:40 27° 310° (NW) 14:28:20 435.215
KKS-1 22 Dec 14:23:40 14:27:53 40° 99° (E) 14:32:05 437.445
SRMSAT 22 Dec 14:24:37 14:26:50 12° 181° (S) 14:29:02 437.500
JAS-2 22 Dec 14:25:42 14:26:12 10° 56° (NE) 14:26:42 435.910
Oscar 19 22 Dec 14:30:08 14:32:03 12° 270° (W) 14:34:00 437.125/150
PCSat 22 Dec 14:34:52 14:39:22 26° 309° (NW) 14:43:54 145.827
AO-7 22 Dec 14:37:57 14:45:39 44° 63° (ENE) 14:53:25 29.400- 29.500
ITAMSAT 1 22 Dec 14:48:22 14:52:18 22° 266° (W) 14:56:15 435.822/435.867
HORYU 2 22 Dec 14:52:04 14:56:31 77° 257° (WSW) 15:01:02 437.375
Gurwin Techsat 1B 22 Dec 14:55:14 14:59:54 31° 264° (W) 15:04:37 435.225
SWISSCUBE 22 Dec 15:09:17 15:11:47 14° 297° (WNW) 15:14:17 437.505
ITUPSAT 1 22 Dec 15:10:28 15:13:12 15° 296° (WNW) 15:15:56 437.325
AUBIESAT-1 22 Dec 15:12:31 15:16:22 34° 295° (WNW) 15:19:55 437.475
RS-15 22 Dec 15:16:48 15:23:57 19° 342° (NNW) 15:31:14 29.354- 29.394
AIST 1 22 Dec 15:33:34 15:37:09 25° 89° (E) 15:40:43
M-CUBED/EXP-1 PRIME 22 Dec 15:40:41 15:43:26 17° 301° (WNW) 15:46:02 437.505
MOZHAYETS 4 22 Dec 15:51:30 15:52:16 10° 89° (E) 15:53:03
STARS 22 Dec 15:51:54 15:55:50 32° 290° (WNW) 15:59:46 437.465
KKS-1 22 Dec 16:01:10 16:04:12 18° 294° (WNW) 16:07:14 437.445
JAS-2 22 Dec 16:02:37 16:10:04 59° 72° (ENE) 16:16:51 435.910
GONETS M04 22 Dec 16:02:55 16:11:17 47° 76° (ENE) 16:19:32
Cubesat XI-IV 22 Dec 16:22:13 16:25:20 16° 62° (ENE) 16:28:26 437.490
AO-7 22 Dec 16:30:45 16:38:24 40° 261° (W) 16:46:09 29.400- 29.500
CUTE-I 22 Dec 16:53:05 16:57:38 30° 67° (ENE) 17:02:12 437.470
AIST 1 22 Dec 17:11:08 17:14:42 24° 285° (WNW) 17:18:16
MaSat-1 22 Dec 17:11:50 17:13:21 15° 60° (ENE) 17:14:56 437.345
ISS 22 Dec 17:12:07 17:12:19 10° 11° (NNE) 17:12:32 145.825
PRISM 22 Dec 17:21:34 17:23:20 12° 92° (E) 17:25:07 437.425
MOZHAYETS 4 22 Dec 17:25:20 17:29:56 68° 285° (WNW) 17:34:29
RS-15 22 Dec 17:34:56 17:42:29 20° 20° (NNE) 17:50:11 29.354- 29.394
JAS-2 22 Dec 17:49:11 17:55:16 26° 266° (W) 18:01:00 435.910
Cubesat XI-IV 22 Dec 17:59:34 18:04:51 65° 258° (WSW) 18:10:09 437.490
GONETS M04 22 Dec 18:00:09 18:07:48 36° 275° (W) 18:15:23
STRAND 1 22 Dec 18:23:23 18:27:46 28° 96° (E) 18:32:07 437.568
CUTE-I 22 Dec 18:32:53 18:37:36 32° 263° (W) 18:42:20 437.470
CUSAT 1 22 Dec 18:42:59 18:48:30 20° 66° (ENE) 18:54:16 437.405
MaSat-1 22 Dec 18:45:19 18:46:19 12° 252° (WSW) 18:47:20 437.345
ISS 22 Dec 18:46:47 18:49:45 30° 31° (NNE) 18:52:41 145.825
CUBESAT XI-V 22 Dec 18:54:53 18:59:30 76° 102° (ESE) 19:04:05 437.345
PRISM 22 Dec 18:55:08 18:59:07 47° 287° (WNW) 19:03:04 437.425
CANX-2 22 Dec 19:10:20 19:12:36 14° 65° (ENE) 19:14:52 2200.000
BRITE-PL 22 Dec 19:22:00 19:24:52 18° 68° (ENE) 19:27:44 437.365/2234.400
HO-68 22 Dec 19:24:41 19:31:13 40° 65° (ENE) 19:37:46 435.675
COMPASS 1 22 Dec 19:25:27 19:27:32 14° 65° (ENE) 19:29:39 437.405
SEEDS 22 Dec 19:33:12 19:36:17 20° 68° (ENE) 19:39:23 437.485
GOMX 1 22 Dec 19:36:23 19:39:16 19° 67° (ENE) 19:42:11 467.674
CUTE 1.7 + AOD 2 22 Dec 19:39:17 19:42:52 27° 70° (ENE) 19:46:29 437.475
DANDE 22 Dec 19:44:53 19:52:29 46° 75° (ENE) 20:00:43 436.750
RS-15 22 Dec 19:47:24 19:58:21 53° 50° (NE) 20:09:44 29.354- 29.394
DOVE 4 22 Dec 19:50:28 19:53:27 19° 67° (ENE) 19:56:28 437.250
CINEMA 3 22 Dec 19:58:49 20:01:03 14° 65° (ENE) 20:03:19 145.822/145.860
STRAND 1 22 Dec 20:02:27 20:06:54 31° 292° (WNW) 20:11:20 437.568
DX 1 22 Dec 20:07:17 20:09:36 14° 64° (ENE) 20:11:55 434.975-435.025
SO-50 22 Dec 20:21:05 20:25:33 69° 119° (ESE) 20:30:11 436.795
AAUSAT CUBESAT 2 22 Dec 20:21:33 20:25:38 51° 74° (ENE) 20:29:44 437.432
ISS 22 Dec 20:23:26 20:26:16 27° 227° (SW) 20:29:04 145.825
Oscar 11 22 Dec 20:23:56 20:27:35 27° 70° (ENE) 20:31:16 145.826/435.025
CUSAT 1 22 Dec 20:24:19 20:32:24 89° 82° (E) 20:40:55 437.405
UKube-1 22 Dec 20:34:07 20:37:45 27° 69° (ENE) 20:41:24 .
CUBESAT XI-V 22 Dec 20:35:21 20:36:16 11° 298° (WNW) 20:37:11 437.345
CANX-2 22 Dec 20:43:59 20:48:06 48° 261° (W) 20:52:16 2200.000
BEESAT 3 22 Dec 20:44:55 20:48:03 20° 48° (NE) 20:51:10 437.485
COMPASS 1 22 Dec 20:58:43 21:02:48 49° 261° (W) 21:06:57 437.405
BRITE-PL 22 Dec 20:59:29 21:03:11 31° 263° (W) 21:06:54 437.365/2234.400
DELFI C3 22 Dec 21:00:10 21:04:12 57° 75° (ENE) 21:08:16 145.870
CUBEBUG 2 22 Dec 21:00:33 21:04:30 42° 72° (ENE) 21:08:34 437.445
ZACube-1 22 Dec 21:00:42 21:04:22 30° 70° (ENE) 21:08:07 437.345
50 SAT 22 Dec 21:02:23 21:04:29 14° 66° (ENE) 21:06:35 437.505
AIST 2 22 Dec 21:06:16 21:08:54 16° 45° (NE) 21:11:30 435.215
SEEDS 22 Dec 21:08:03 21:11:52 32° 263° (W) 21:15:44 437.485
VELOX 1 22 Dec 21:11:20 21:14:49 23° 68° (ENE) 21:18:19 145.980
HO-68 22 Dec 21:12:18 21:18:52 38° 262° (W) 21:25:27 435.675
GOMX 1 22 Dec 21:13:31 21:17:12 31° 263° (W) 21:20:56 467.674
CUTE 1.7 + AOD 2 22 Dec 21:15:17 21:18:44 24° 265° (W) 21:22:12 437.475
ESTCUBE 1 22 Dec 21:24:23 21:26:34 13° 64° (ENE) 21:28:45 437.505/2401.250
FUNcube-1 22 Dec 21:26:09 21:30:15 59° 75° (ENE) 21:34:28 145.935
BEESAT 2 22 Dec 21:26:30 21:30:32 45° 55° (NE) 21:34:31 435.950
DOVE 4 22 Dec 21:27:23 21:31:01 30° 264° (W) 21:34:45 437.250
DANDE 22 Dec 21:28:28 21:35:52 41° 270° (W) 21:43:48 436.750
UWE-3 22 Dec 21:33:13 21:37:24 88° 80° (E) 21:41:43 435.000/436.395/437.385
CINEMA 3 22 Dec 21:33:52 21:37:50 44° 261° (W) 21:41:56 145.822/145.860
PCSat 22 Dec 21:40:12 21:44:49 28° 52° (NE) 21:49:24 145.827
DX 1 22 Dec 21:41:12 21:45:24 49° 260° (W) 21:49:38 434.975-435.025
HUMSAT D 22 Dec 21:41:54 21:45:54 51° 74° (ENE) 21:49:59 437.325/437.525
UNISAT 6 22 Dec 21:41:58 21:44:20 14° 91° (E) 21:46:42 437.425
CUBEBUG 1 22 Dec 21:52:42 21:56:12 24° 69° (ENE) 21:59:42 437.445
AISAT 22 Dec 21:54:55 21:59:18 74° 75° (ENE) 22:03:43 437.250
AAUSAT CUBESAT 2 22 Dec 21:59:57 22:01:35 12° 269° (W) 22:03:13 437.432
RS-15 22 Dec 22:00:03 22:10:36 47° 251° (WSW) 22:21:37 29.354- 29.394
Oscar 11 22 Dec 22:00:11 22:03:42 24° 265° (W) 22:07:14 145.826/435.025
SO-50 22 Dec 22:03:47 22:06:36 16° 317° (NW) 22:09:29 436.795
CUSAT 1 22 Dec 22:09:22 22:14:37 19° 277° (W) 22:20:02 437.405
UKube-1 22 Dec 22:10:19 22:13:51 24° 264° (W) 22:17:24 .
ANTELSAT 22 Dec 22:12:41 22:16:50 30° 96° (E) 22:20:57 437.575/2403.000
POPSAT HIP 1 22 Dec 22:19:25 22:22:35 20° 95° (E) 22:25:45 437.405
BEESAT 3 22 Dec 22:22:30 22:26:22 38° 245° (WSW) 22:30:10 437.485
BUGSAT 1 22 Dec 22:32:44 22:35:53 21° 95° (E) 22:39:02 437.445
50 SAT 22 Dec 22:35:29 22:39:17 42° 261° (W) 22:43:10 437.505
ZACube-1 22 Dec 22:37:40 22:40:47 20° 266° (W) 22:43:57 437.345
CUBEBUG 2 22 Dec 22:39:10 22:41:27 14° 268° (W) 22:43:45 437.445
TISAT 1 22 Dec 22:39:26 22:42:22 19° 67° (ENE) 22:45:19 437.305
DELFI C3 22 Dec 22:39:34 22:39:48 10° 270° (W) 22:40:02 145.870
AIST 2 22 Dec 22:43:41 22:47:54 59° 243° (WSW) 22:52:02 435.215
DUCHIFAT 1 22 Dec 22:45:25 22:49:26 39° 99° (E) 22:53:26 145.980
TIGRISAT 22 Dec 22:46:09 22:50:52 67° 101° (ESE) 22:55:33 435.000
VELOX 1 22 Dec 22:47:24 22:51:15 29° 263° (W) 22:55:06 145.980
SPROUT 22 Dec 22:50:38 22:54:00 23° 69° (ENE) 22:57:23 437.525
ESTCUBE 1 22 Dec 22:58:28 23:02:55 58° 259° (W) 23:07:24 437.505/2401.250
QB50P2 22 Dec 23:00:43 23:04:58 62° 101° (E) 23:09:13 145.880/145.840
BEESAT 2 22 Dec 23:05:56 23:08:23 15° 251° (WSW) 23:10:48 435.950
YUBILEINY 22 Dec 23:06:37 23:14:49 47° 88° (E) 23:22:59 435.215
O/OREOS (USA 219) 22 Dec 23:08:37 23:11:18 16° 100° (E) 23:13:59 437.305
NANOSAT C BR1 22 Dec 23:10:22 23:14:39 80° 102° (ESE) 23:18:55 145.865
POLYITAN 1 22 Dec 23:10:27 23:14:46 82° 103° (ESE) 23:19:05 437.675
UNISAT 6 22 Dec 23:16:48 23:21:26 57° 286° (WNW) 23:26:02 437.425
HUMSAT D 22 Dec 23:20:40 23:22:01 11° 269° (W) 23:23:23 437.325/437.525
PCSat 22 Dec 23:23:17 23:28:20 41° 249° (WSW) 23:33:22 145.827
QB50P1 22 Dec 23:25:18 23:29:32 68° 285° (WNW) 23:33:47 145.935-145.965
BEESAT 22 Dec 23:26:22 23:26:58 10° 61° (ENE) 23:27:34 436.000
CUBEBUG 1 22 Dec 23:28:43 23:32:27 27° 264° (W) 23:36:11 437.445
ANTELSAT 22 Dec 23:49:33 23:53:29 27° 291° (WNW) 23:57:24 437.575/2403.000
POPSAT HIP 1 22 Dec 23:54:44 23:58:30 31° 289° (WNW) 00:02:17 437.405
BUGSAT 1 23 Dec 00:07:55 00:11:20 27° 290° (WNW) 00:14:46 437.445
TISAT 1 23 Dec 00:14:08 00:17:57 33° 262° (W) 00:21:46 437.305
DUCHIFAT 1 23 Dec 00:22:15 00:24:58 17° 294° (WNW) 00:27:41 145.980
TIGRISAT 23 Dec 00:24:57 00:27:01 13° 297° (WNW) 00:29:04 435.000
AUBIESAT-1 23 Dec 00:25:04 00:28:57 25° 63° (ENE) 00:32:52 437.475
SPROUT 23 Dec 00:26:18 00:29:57 27° 264° (W) 00:33:37 437.525
SWISSCUBE 23 Dec 00:34:56 00:39:38 58° 73° (ENE) 00:44:20 437.505
ITUPSAT 1 23 Dec 00:36:32 00:41:12 54° 73° (ENE) 00:45:54 437.325
QB50P2 23 Dec 00:39:02 00:40:20 11° 296° (WNW) 00:41:39 145.880/145.840
O/OREOS (USA 219) 23 Dec 00:46:04 00:50:18 42° 295° (WNW) 00:54:33 437.305
PHONESAT 2.4 23 Dec 00:49:36 00:50:00 10° 142° (SE) 00:50:25 2401.200-2431.200
M-CUBED/EXP-1 PRIME 23 Dec 00:51:44 00:56:24 48° 68° (ENE) 01:01:08 437.505
BEESAT 23 Dec 00:59:16 01:04:04 85° 257° (WSW) 01:08:53 436.000
Oscar 19 23 Dec 01:00:40 01:05:09 29° 96° (E) 01:09:35 437.125/150
YUBILEINY 23 Dec 01:03:55 01:11:43 36° 287° (WNW) 01:19:34 435.215
STARS 23 Dec 01:12:38 01:15:25 17° 66° (ENE) 01:18:14 437.465
KKS-1 23 Dec 01:20:51 01:24:44 31° 70° (ENE) 01:28:38 437.445
ITAMSAT 1 23 Dec 01:23:18 01:26:30 16° 92° (E) 01:29:42 435.822/435.867
Gurwin Techsat 1B 23 Dec 01:34:39 01:37:01 13° 90° (E) 01:39:22 435.225
VERMONT LUNAR 23 Dec 01:57:44 02:01:07 45° 156° (SSE) 02:04:31 437.305
AUBIESAT-1 23 Dec 01:59:08 02:03:37 38° 258° (WSW) 02:08:11 437.475
SWISSCUBE 23 Dec 02:15:28 02:17:49 14° 268° (W) 02:20:11 437.505
ITUPSAT 1 23 Dec 02:16:47 02:19:24 15° 268° (W) 02:22:01 437.325
PHONESAT 2.4 23 Dec 02:24:38 02:28:07 47° 156° (SSE) 02:31:37 2401.200-2431.200
M-CUBED/EXP-1 PRIME 23 Dec 02:28:12 02:31:34 19° 263° (W) 02:34:58 437.505
Oscar 19 23 Dec 02:39:51 02:44:26 32° 292° (WNW) 02:49:00 437.125/150
AO-7 23 Dec 02:44:00 02:47:28 13° 89° (E) 02:50:55 29.400- 29.500
HORYU 2 23 Dec 02:45:48 02:49:24 23° 95° (E) 02:52:58 437.375
STARS 23 Dec 02:47:25 02:51:33 41° 261° (W) 02:55:43 437.465
KKS-1 23 Dec 02:57:57 03:01:22 22° 265° (W) 03:04:50 437.445
ITAMSAT 1 23 Dec 03:01:15 03:06:18 55° 288° (WNW) 03:11:19 435.822/435.867
Gurwin Techsat 1B 23 Dec 03:12:10 03:17:27 71° 286° (WNW) 03:22:43 435.225
AIST 1 23 Dec 03:19:01 03:23:17 69° 82° (E) 03:27:30
VERMONT LUNAR 23 Dec 03:35:52 03:39:23 67° 352° (N) 03:42:54 437.305
PHONESAT 2.4 23 Dec 04:03:09 04:06:46 67° 352° (N) 04:10:23 2401.200-2431.200
HORYU 2 23 Dec 04:22:05 04:26:03 31° 290° (WNW) 04:29:59 437.375
MOZHAYETS 4 23 Dec 04:25:35 04:30:14 87° 257° (WSW) 04:34:55
AO-7 23 Dec 04:33:01 04:41:26 77° 106° (ESE) 04:49:46 29.400- 29.500
SO-50 23 Dec 04:53:57 04:58:37 43° 53° (NE) 05:03:18 436.795
JAS-2 23 Dec 04:59:44 05:05:04 51° 99° (E) 05:10:04 435.910
GONETS M04 23 Dec 05:01:34 05:10:07 57° 90° (E) 05:18:40
CUTE-I 23 Dec 05:13:18 05:15:30 13° 90° (E) 05:17:41 437.470
VERMONT LUNAR 23 Dec 05:14:20 05:17:52 69° 9° (N) 05:21:22 437.305
STRAND 1 23 Dec 05:37:51 05:42:29 36° 69° (ENE) 05:47:07 437.568
PHONESAT 2.4 23 Dec 05:42:00 05:45:38 71° 10° (N) 05:49:15 2401.200-2431.200
PRISM 23 Dec 05:43:59 05:48:13 80° 257° (WSW) 05:52:27 437.425
CUBESAT XI-V 23 Dec 05:56:46 06:01:23 62° 75° (ENE) 06:05:58 437.345
Cubesat XI-IV 23 Dec 06:18:21 06:23:36 57° 101° (E) 06:28:49 437.490
AO-7 23 Dec 06:27:06 06:33:20 24° 305° (NW) 06:39:34 29.400- 29.500
SO-50 23 Dec 06:35:08 06:38:54 22° 249° (WSW) 06:42:39 436.795
JAS-2 23 Dec 06:46:01 06:49:41 19° 298° (WNW) 06:53:12 435.910
CUTE-I 23 Dec 06:50:45 06:56:04 73° 286° (WNW) 07:01:21 437.470
VERMONT LUNAR 23 Dec 06:52:45 06:56:05 41° 205° (SSW) 06:59:25 437.305
GONETS M04 23 Dec 06:59:51 07:07:19 30° 290° (WNW) 07:14:51
STRAND 1 23 Dec 07:17:35 07:21:43 25° 265° (W) 07:25:51 437.568
PHONESAT 2.4 23 Dec 07:20:48 07:24:14 41° 205° (SSW) 07:27:39 2401.200-2431.200
CUBESAT XI-V 23 Dec 07:37:28 07:39:11 12° 270° (W) 07:40:54 437.345
MaSat-1 23 Dec 07:58:38 08:00:53 68° 112° (ESE) 08:03:04 437.345
Cubesat XI-IV 23 Dec 07:59:44 08:03:12 18° 297° (WNW) 08:06:40 437.490
CANX-2 23 Dec 08:31:13 08:35:05 31° 97° (E) 08:38:54 2200.000
HO-68 23 Dec 08:40:54 08:47:44 46° 100° (E) 08:54:30 435.675
UNISAT 6 23 Dec 08:42:14 08:42:41 10° 61° (ENE) 08:43:09 437.425
COMPASS 1 23 Dec 08:44:28 08:48:11 29° 96° (E) 08:51:51 437.405
SEEDS 23 Dec 08:53:54 08:58:02 44° 99° (E) 09:02:06 437.485
CUBEBUG 2 23 Dec 08:55:17 08:56:50 11° 90° (E) 08:58:23 437.445
DANDE 23 Dec 08:59:18 09:02:37 35° 89° (E) 09:06:59 436.750
CUTE 1.7 + AOD 2 23 Dec 09:01:17 09:05:35 65° 101° (E) 09:09:50 437.475
BRITE-PL 23 Dec 09:03:46 09:08:37 80° 102° (ESE) 09:13:53 437.365/2234.400
ANTELSAT 23 Dec 09:11:12 09:14:35 22° 67° (ENE) 09:18:01 437.575/2403.000
POPSAT HIP 1 23 Dec 09:12:33 09:14:37 14° 65° (ENE) 09:16:41 437.405
GOMX 1 23 Dec 09:15:03 09:19:57 75° 102° (ESE) 09:25:10 467.674
FUNcube-1 23 Dec 09:17:43 09:20:08 14° 92° (E) 09:22:33 145.935
O/OREOS (USA 219) 23 Dec 09:18:24 09:22:10 25° 61° (ENE) 09:25:57 437.305
YUBILEINY 23 Dec 09:19:20 09:25:31 21° 66° (ENE) 09:31:40 435.215
BUGSAT 1 23 Dec 09:23:11 09:25:11 14° 66° (ENE) 09:27:12 437.445
UWE-3 23 Dec 09:25:20 09:28:52 21° 94° (E) 09:32:26 435.000/436.395/437.385
DOVE 4 23 Dec 09:26:24 09:31:18 73° 102° (ESE) 09:36:27 437.250
CINEMA 3 23 Dec 09:29:33 09:34:12 46° 99° (E) 09:38:59 145.822/145.860
DX 1 23 Dec 09:31:21 09:35:10 30° 97° (E) 09:38:59 434.975-435.025
CUSAT 1 23 Dec 09:35:04 09:38:48 65° 282° (WNW) 09:43:54 437.405
DUCHIFAT 1 23 Dec 09:37:22 09:40:48 25° 69° (ENE) 09:44:15 145.980
AAUSAT CUBESAT 2 23 Dec 09:42:04 09:46:17 66° 285° (WNW) 09:50:27 437.432
TIGRISAT 23 Dec 09:43:46 09:47:57 47° 73° (ENE) 09:52:16 435.000
Oscar 11 23 Dec 09:48:07 09:52:28 67° 101° (E) 09:56:47 145.826/435.025
AISAT 23 Dec 09:48:53 09:51:36 16° 93° (E) 09:54:19 437.250
QB50P2 23 Dec 09:52:41 09:56:35 38° 72° (ENE) 10:00:31 145.880/145.840
UKube-1 23 Dec 09:58:41 10:02:59 60° 101° (ESE) 10:07:15 .
NANOSAT C BR1 23 Dec 10:01:54 10:05:57 48° 73° (ENE) 10:10:01 145.865
POLYITAN 1 23 Dec 10:02:27 10:06:31 50° 73° (ENE) 10:10:36 437.675
CANX-2 23 Dec 10:07:34 10:10:48 21° 292° (WNW) 10:14:01 2200.000
RS-15 23 Dec 10:10:37 10:20:03 35° 106° (ESE) 10:29:24 29.354- 29.394
UNISAT 6 23 Dec 10:14:24 10:18:46 75° 258° (WSW) 10:23:17 437.425
QB50P1 23 Dec 10:16:43 10:20:54 74° 76° (ENE) 10:25:07 145.935-145.965
50 SAT 23 Dec 10:17:18 10:20:53 27° 96° (E) 10:24:26 437.505
DELFI C3 23 Dec 10:17:24 10:21:29 64° 285° (WNW) 10:25:31 145.870
COMPASS 1 23 Dec 10:20:26 10:23:43 22° 291° (WNW) 10:26:59 437.405
ZACube-1 23 Dec 10:26:23 10:30:58 83° 102° (ESE) 10:35:35 437.345
HO-68 23 Dec 10:29:00 10:35:11 33° 297° (WNW) 10:41:20 435.675
CUBEBUG 2 23 Dec 10:29:14 10:33:54 67° 285° (WNW) 10:38:37 437.445
SEEDS 23 Dec 10:31:00 10:33:27 15° 294° (WNW) 10:35:54 437.485
VELOX 1 23 Dec 10:39:01 10:43:23 57° 101° (E) 10:47:44 145.980
CUTE 1.7 + AOD 2 23 Dec 10:39:47 10:40:55 11° 297° (WNW) 10:42:04 437.475
DANDE 23 Dec 10:44:14 10:46:35 15° 298° (WNW) 10:49:18 436.750
BRITE-PL 23 Dec 10:45:00 10:46:35 12° 296° (WNW) 10:48:12 437.365/2234.400
POPSAT HIP 1 23 Dec 10:46:00 10:50:04 49° 260° (W) 10:54:10 437.405
ANTELSAT 23 Dec 10:47:14 10:51:09 32° 263° (W) 10:55:11 437.575/2403.000
